Terminal Aerodrome Forecast
Issued by NWS

Home | Current Version | Previous Version | Text Only | Print | Product List | Glossary Off
Versions: 1 2 3 4 5 6 7 8 9 10 11 12 13 14 15 16 17 18 19 20 21 22 23 24 25 26 27 28 29 30 31 32 33 34 35 36 37 38 39 40 41 42 43 44 45 46 47 48 49 50

000
FTUS43 KLOT 272320
TAFGYY
TAF
KGYY 272320Z 2800/2824 07007KT P6SM BKN250
     FM280500 15005KT P6SM BKN250
     FM281400 18008KT P6SM SCT030 OVC150
     FM282100 12009KT P6SM FEW040 OVC120=

USA.gov is the U.S. government's official web portal to all federal, state and local government web resources and services.